Back to catalog

DELTA 1 DEB

AlivePO
NORAD 12278·DEBRIS·🇺🇸 United States

Launched Mar 5, 1978 from Vandenberg Space Force Base

Loading…

Next Passes (next 24 hours)

TLE

FreshSource: Space-Track

Epoch: Sep 14, 2026, 01:21 UTC

1 12278U 78026DW  26257.05687252  .00001907  00000-0  53069-3 0  9993
2 12278  99.1311  96.0099 0038885  48.3775 112.1195 14.47240747356054

Track DELTA 1 DEB in real time with AllMySat

Download on the App Store